Estación meteorológica de Susqueda - Presa de (La Selva, Susqueda)

Consulta los datos en tiempo real de la estación meteorológica de Susqueda - Presa de





Hora UTC 18:30
Temperatura 16.3 ºC
Humedad 76.0 %
Presión 1012.5 hPa
Pluja 0.0 mm
Velocidad viento 0.0 km/h
Dirección viento ENE

Webcam

Datos diarios 2026-05-08



Hora UTC (invierno +1h; verano +2h)
Temperatura (ºC) Humedad (%) Presión (hPa) Velocidad viento (km/h) Precipitación (mm)
Hora UTC Aire Humedad Presión Vel. Dir. Vel. Max Dir. Intent. máx 5 min.
00:05 12.0 85.0 1012.2 0.0 W 0.0 0.0
00:10 12.1 85.0 1012.1 0.0 SW 1.6 0.0
00:15 12.1 86.0 1012.2 0.0 WSW 1.6 0.0
00:20 11.9 86.0 1012.0 0.0 WNW 1.6 0.0
00:25 11.9 86.0 1012.0 0.0 W 0.0 0.0
00:30 11.7 86.0 1012.0 0.0 W 0.0 0.0
00:35 11.3 86.0 1012.0 0.0 WNW 0.0 0.0
00:40 11.2 86.0 1012.0 0.0 WNW 1.6 0.0
00:45 11.3 87.0 1012.0 0.0 W 0.0 0.0
00:50 11.2 87.0 1012.1 0.0 WNW 0.0 0.0
00:55 11.3 87.0 1012.0 0.0 W 0.0 0.0
01:00 11.5 87.0 1012.0 0.0 WSW 0.0 0.0
01:05 11.5 87.0 1012.0 0.0 W 0.0 0.0
01:10 11.4 87.0 1012.0 0.0 WSW 0.0 0.0
01:15 11.4 87.0 1011.9 0.0 W 0.0 0.0
01:20 11.3 87.0 1011.9 0.0 WNW 0.0 0.0
01:25 11.3 87.0 1011.7 0.0 W 1.6 0.0
01:30 11.3 88.0 1011.8 0.0 WNW 1.6 0.0
01:35 11.3 87.0 1011.6 0.0 W 1.6 0.0
01:40 11.3 88.0 1011.7 0.0 W 0.0 0.0
01:45 11.4 88.0 1011.6 0.0 W 0.0 0.0
01:50 11.4 88.0 1011.7 0.0 W 6.4 0.0
01:55 11.3 88.0 1011.7 0.0 W 6.4 0.0
02:00 11.4 88.0 1011.7 0.0 W 1.6 0.0
02:05 11.6 88.0 1011.6 0.0 WSW 1.6 0.0
02:10 11.4 88.0 1011.5 0.0 W 6.4 0.0
02:15 11.2 88.0 1011.6 0.0 WSW 9.7 0.0
02:20 11.3 88.0 1011.6 0.0 W 4.8 0.0
02:25 11.3 88.0 1011.5 0.0 W 4.8 0.0
02:30 11.2 88.0 1011.5 0.0 W 1.6 0.0
02:35 11.2 88.0 1011.5 0.0 W 9.7 0.0
02:40 11.3 88.0 1011.5 9.7 W 11.3 0.0
02:45 11.3 88.0 1011.5 0.0 WSW 11.3 0.0
02:50 11.4 88.0 1011.4 0.0 W 9.7 0.0
02:55 11.3 87.0 1011.4 0.0 W 9.7 0.0
03:00 11.4 87.0 1011.4 0.0 W 11.3 0.0
03:05 11.4 87.0 1011.5 0.0 WNW 11.3 0.0
03:10 11.3 87.0 1011.3 0.0 WSW 11.3 0.0
03:15 11.3 87.0 1011.3 0.0 WSW 11.3 0.0
03:20 11.4 88.0 1011.2 6.4 WSW 11.3 0.0
03:25 11.3 87.0 1011.2 4.8 W 11.3 0.0
03:30 11.1 87.0 1011.2 0.0 W 11.3 0.0
03:35 11.0 87.0 1011.1 0.0 W 9.7 0.0
03:40 10.9 88.0 1011.2 0.0 W 8.0 0.0
03:45 10.9 88.0 1011.2 0.0 W 8.0 0.0
03:50 10.8 88.0 1011.2 0.0 W 6.4 0.0
03:55 10.7 87.0 1011.2 0.0 W 0.0 0.0
04:00 10.7 88.0 1011.2 0.0 WSW 11.3 0.0
04:05 10.8 87.0 1011.3 9.7 W 11.3 0.0
04:10 10.8 87.0 1011.4 0.0 W 11.3 0.0
04:15 10.4 88.0 1011.4 0.0 W 6.4 0.0
04:20 10.3 88.0 1011.4 0.0 W 9.7 0.0
04:25 10.4 88.0 1011.5 0.0 WNW 9.7 0.0
04:30 10.4 88.0 1011.6 0.0 WNW 0.0 0.0
04:35 10.4 88.0 1011.5 0.0 WNW 0.0 0.0
04:40 10.3 87.0 1011.5 0.0 W 1.6 0.0
04:45 10.3 88.0 1011.5 0.0 WSW 11.3 0.0
04:50 10.3 88.0 1011.6 0.0 WNW 11.3 0.0
04:55 10.1 88.0 1011.6 0.0 WNW 6.4 0.0
05:00 10.0 88.0 1011.8 0.0 WNW 1.6 0.0
05:05 9.9 88.0 1011.8 0.0 WNW 8.0 0.0
05:10 9.9 89.0 1011.9 8.0 WNW 8.0 0.0
05:15 10.1 88.0 1011.9 0.0 W 11.3 0.0
05:20 9.9 88.0 1011.9 0.0 WNW 11.3 0.0
05:25 9.9 89.0 1012.0 0.0 W 4.8 0.0
05:30 9.8 89.0 1012.1 0.0 WNW 4.8 0.0
05:35 9.8 89.0 1012.1 0.0 W 9.7 0.0
05:40 9.8 89.0 1012.2 0.0 WNW 9.7 0.0
05:45 9.8 89.0 1012.2 0.0 W 3.2 0.0
05:50 9.8 89.0 1012.3 0.0 W 8.0 0.0
05:55 9.8 89.0 1012.4 0.0 NNW 8.0 0.0
06:00 9.8 89.0 1012.4 0.0 W 6.4 0.0
06:05 9.8 89.0 1012.5 0.0 W 0.0 0.0
06:10 9.9 89.0 1012.5 0.0 WNW 0.0 0.0
06:15 9.9 89.0 1012.5 0.0 W 6.4 0.0
06:20 10.1 89.0 1012.5 0.0 W 6.4 0.0
06:25 10.3 88.0 1012.5 0.0 W 9.7 0.0
06:30 10.2 88.0 1012.6 0.0 WSW 9.7 0.0
06:35 10.2 88.0 1012.7 0.0 SW 1.6 0.0
06:40 10.2 88.0 1012.7 0.0 W 1.6 0.0
06:45 10.2 88.0 1012.6 0.0 W 1.6 0.0
06:50 10.2 89.0 1012.6 0.0 W 0.0 0.0
06:55 10.4 88.0 1012.7 0.0 W 0.0 0.0
07:00 10.4 88.0 1012.8 0.0 WNW 0.0 0.0
07:05 10.6 87.0 1012.8 0.0 WNW 0.0 0.0
07:10 10.7 87.0 1012.8 0.0 W 0.0 0.0
07:15 11.0 87.0 1012.8 0.0 WSW 0.0 0.0
07:20 11.1 87.0 1012.7 0.0 WSW 0.0 0.0
07:25 11.1 87.0 1012.7 0.0 WSW 0.0 0.0
07:30 11.3 87.0 1012.7 0.0 W 0.0 0.0
07:35 11.4 86.0 1012.7 0.0 W 0.0 0.0
07:40 11.6 86.0 1012.6 0.0 W 0.0 0.0
07:45 11.8 85.0 1012.6 0.0 WSW 0.0 0.0
07:50 12.1 85.0 1012.6 0.0 WSW 0.0 0.0
07:55 12.3 84.0 1012.6 0.0 WSW 0.0 0.0
08:00 12.6 84.0 1012.6 0.0 W 0.0 0.0
08:05 12.8 82.0 1012.5 0.0 W 0.0 0.0
08:10 13.1 81.0 1012.6 0.0 W 0.0 0.0
08:15 13.2 81.0 1012.6 0.0 WSW 0.0 0.0
08:20 13.4 81.0 1012.7 0.0 WSW 0.0 0.0
08:25 13.6 80.0 1012.6 0.0 WSW 0.0 0.0
08:30 13.7 80.0 1012.6 0.0 WSW 0.0 0.0
08:35 13.9 79.0 1012.6 0.0 WSW 0.0 0.0
08:40 14.3 76.0 1012.6 0.0 WSW 0.0 0.0
08:45 14.7 75.0 1012.6 0.0 WSW 0.0 0.0
08:50 15.1 74.0 1012.6 0.0 WSW 0.0 0.0
08:55 15.4 74.0 1012.6 0.0 WSW 0.0 0.0
09:00 16.3 73.0 1012.6 0.0 E 0.0 0.0
09:05 17.2 68.0 1012.6 0.0 ESE 3.2 0.0
09:10 18.1 68.0 1012.5 0.0 E 6.4 0.0
09:15 18.7 66.0 1012.4 0.0 NE 6.4 0.0
09:20 19.2 64.0 1012.5 0.0 E 1.6 0.0
09:25 19.2 65.0 1012.6 0.0 ENE 1.6 0.0
09:30 19.0 65.0 1012.6 0.0 SE 1.6 0.0
09:35 18.5 65.0 1012.7 0.0 NE 3.2 0.0
09:40 18.2 67.0 1012.8 0.0 ENE 3.2 0.0
09:45 18.0 67.0 1012.8 0.0 ENE 1.6 0.0
09:50 17.9 68.0 1012.8 1.6 E 4.8 0.0
09:55 17.9 67.0 1012.8 0.0 E 4.8 0.0
10:00 17.9 67.0 1012.8 0.0 E 4.8 0.0
10:05 18.1 67.0 1012.8 0.0 E 1.6 0.0
10:10 18.4 65.0 1012.8 0.0 E 0.0 0.0
10:15 18.6 63.0 1012.8 0.0 ENE 0.0 0.0
10:20 18.4 57.0 1012.7 0.0 E 0.0 0.0
10:25 18.7 60.0 1012.8 0.0 ESE 0.0 0.0
10:30 18.4 52.0 1012.8 0.0 N 6.4 0.0
10:35 18.3 53.0 1012.7 0.0 W 4.8 0.0
10:40 18.4 52.0 1012.6 0.0 NE 3.2 0.0
10:50 17.8 55.0 1012.6 0.0 SE 8.0 0.0
10:55 18.2 57.0 1012.6 0.0 SW 6.4 0.0
11:00 18.5 60.0 1012.5 0.0 SE 0.0 0.0
11:05 19.2 60.0 1012.4 0.0 E 1.6 0.0
11:10 19.6 59.0 1012.2 0.0 ENE 0.0 0.0
11:15 19.4 60.0 1012.2 0.0 NE 6.4 0.0
11:20 19.6 57.0 1012.2 0.0 E 6.4 0.0
11:25 19.6 57.0 1012.2 0.0 ENE 0.0 0.0
11:30 19.9 58.0 1012.0 0.0 SE 0.0 0.0
11:35 20.1 59.0 1012.0 6.4 ENE 6.4 0.0
11:40 19.4 61.0 1011.9 0.0 NE 9.7 0.0
11:45 19.4 63.0 1011.9 0.0 ENE 9.7 0.0
11:50 19.3 62.0 1011.9 0.0 E 6.4 0.0
11:55 19.1 64.0 1012.0 0.0 ESE 6.4 0.0
12:00 19.0 64.0 1011.9 0.0 E 4.8 0.0
12:05 18.9 65.0 1011.9 0.0 E 6.4 0.0
12:10 19.0 65.0 1012.0 0.0 ESE 11.3 0.0
12:15 19.1 64.0 1012.0 0.0 ESE 11.3 0.0
12:20 19.2 66.0 1012.0 0.0 SSE 8.0 0.0
12:25 19.2 64.0 1012.0 0.0 E 9.7 0.0
12:30 18.9 62.0 1012.0 0.0 W 9.7 0.0
12:35 19.0 66.0 1012.0 0.0 E 9.7 0.0
12:40 19.1 65.0 1012.0 0.0 E 9.7 0.0
12:45 19.0 64.0 1012.1 0.0 NE 3.2 0.0
12:50 19.2 66.0 1012.0 0.0 ESE 3.2 0.0
12:55 19.2 63.0 1012.1 0.0 NNE 12.9 0.0
13:00 19.2 62.0 1012.2 0.0 E 12.9 0.0
13:05 19.4 64.0 1012.2 0.0 SSW 8.0 0.0
13:10 19.4 60.0 1012.0 0.0 N 8.0 0.0
13:15 19.7 63.0 1012.1 0.0 ENE 8.0 0.0
13:20 19.8 60.0 1012.2 0.0 ESE 6.4 0.0
13:25 19.5 58.0 1012.1 6.4 ESE 6.4 0.0
13:30 19.2 61.0 1012.1 0.0 SW 8.0 0.0
13:40 19.6 62.0 1012.1 0.0 ESE 4.8 0.0
13:45 19.8 60.0 1012.0 0.0 ENE 3.2 0.0
13:50 19.4 61.0 1012.0 0.0 E 11.3 0.0
13:55 19.2 63.0 1012.0 0.0 ENE 11.3 0.0
14:00 18.9 61.0 1012.1 0.0 ENE 9.7 0.0
14:05 18.5 62.0 1012.1 0.0 NW 9.7 0.0
14:10 18.7 62.0 1012.2 0.0 W 9.7 0.0
14:15 18.6 61.0 1012.2 0.0 NNE 6.4 0.0
14:20 18.6 62.0 1012.1 0.0 NW 6.4 0.0
14:25 18.8 64.0 1012.1 0.0 S 0.0 0.0
14:30 18.8 62.0 1012.0 0.0 WSW 1.6 0.0
14:35 18.8 60.0 1012.0 0.0 E 0.0 0.0
14:40 18.9 60.0 1011.9 0.0 SW 1.6 0.0
14:45 19.1 60.0 1011.7 0.0 WNW 0.0 0.0
14:50 19.2 60.0 1011.6 0.0 W 0.0 0.0
14:55 19.4 62.0 1011.5 0.0 E 0.0 0.0
15:00 19.6 60.0 1011.4 0.0 E 0.0 0.0
15:05 19.8 59.0 1011.2 0.0 ESE 0.0 0.0
15:10 19.5 60.0 1011.2 0.0 SW 0.0 0.0
15:15 19.3 62.0 1011.1 0.0 SW 0.0 0.0
15:20 19.4 63.0 1011.1 0.0 W 8.0 0.0
15:25 19.5 60.0 1011.1 0.0 WSW 8.0 0.0
15:30 19.4 60.0 1011.2 0.0 SW 1.6 0.0
15:35 19.4 62.0 1011.3 0.0 SW 0.0 0.0
15:40 19.5 64.0 1011.2 0.0 ESE 0.0 0.0
15:45 19.8 65.0 1011.0 0.0 ENE 1.6 0.0
15:50 20.0 64.0 1011.1 0.0 ENE 6.4 0.0
15:55 19.9 64.0 1011.1 0.0 NE 6.4 0.0
16:00 19.6 65.0 1011.2 0.0 ENE 6.4 0.0
16:05 19.3 66.0 1011.3 0.0 E 3.2 0.0
16:10 19.1 66.0 1011.3 0.0 SE 8.0 0.0
16:15 18.7 67.0 1011.4 0.0 ENE 9.7 0.0
16:20 18.5 68.0 1011.3 4.8 E 11.3 0.0
16:25 18.2 68.0 1011.3 8.0 ENE 11.3 0.0
16:30 18.1 69.0 1011.4 0.0 E 11.3 0.0
16:35 18.1 70.0 1011.4 0.0 E 6.4 0.0
16:40 17.8 70.0 1011.3 0.0 ESE 11.3 0.0
16:45 17.7 71.0 1011.3 0.0 ENE 11.3 0.0
16:50 17.6 72.0 1011.4 0.0 ESE 8.0 0.0
16:55 17.6 72.0 1011.3 0.0 ENE 0.0 0.0
17:00 17.5 72.0 1011.3 0.0 E 1.6 0.0
17:05 17.4 73.0 1011.3 0.0 ENE 3.2 0.0
17:10 17.3 73.0 1011.4 0.0 ENE 8.0 0.0
17:15 17.2 73.0 1011.5 0.0 ENE 8.0 0.0
17:20 16.9 74.0 1011.4 0.0 ENE 8.0 0.0
17:25 16.9 74.0 1011.5 0.0 E 4.8 0.0
17:30 16.9 74.0 1011.5 3.2 ENE 3.2 0.0
17:35 16.9 74.0 1011.6 0.0 ENE 9.7 0.0
17:40 16.9 74.0 1011.7 0.0 E 9.7 0.0
17:45 16.9 74.0 1011.8 0.0 ENE 11.3 0.0
17:50 16.8 74.0 1011.8 0.0 E 11.3 0.0
17:55 16.7 74.0 1011.8 0.0 E 8.0 0.0
18:00 16.8 74.0 1012.0 0.0 ESE 9.7 0.0
18:05 16.8 73.0 1012.0 8.0 ENE 11.3 0.0
18:10 16.7 73.0 1012.2 0.0 ESE 9.7 0.0
18:15 16.7 74.0 1012.3 0.0 ENE 9.7 0.0
18:20 16.4 75.0 1012.3 0.0 E 9.7 0.0
18:25 16.4 76.0 1012.3 0.0 E 3.2 0.0
18:30 16.3 76.0 1012.5 0.0 ENE 6.4 0.0
Máxima 20.1 89.0 1012.8 9.7 W 12.9 0.0
Mínima 9.8 52.0 1011.0
Total 0.0